Location: ????
(30.1475°N, 31.1342°E)
Time: 12:22:53
(UTC+00:00)

Atlas Centaur 2 - Visible Passes

Search period start: 28 March 2023 00:00
Search period end: 07 April 2023 00:00
Orbit: 459 x 1295 km, 30.4° (Epoch: 27 March)

Date Brightness Start Highest point End Pass type
(mag) Time Alt. Az. Time Alt. Az. Time Alt. Az.
28 Mar 2.1 16:57:37 10° SW 17:01:34 43° SSE 17:05:04 17° E visible
28 Mar 3.5 18:45:19 10° W 18:47:31 29° W 18:47:31 29° W visible
29 Mar 1.8 16:51:25 10° WSW 16:55:20 51° SSE 16:59:20 14° E visible
29 Mar 3.2 18:39:15 10° W 18:41:47 35° W 18:41:47 35° W visible
30 Mar 1.6 16:45:14 10° WSW 16:49:06 59° SSE 16:53:32 11° E visible
30 Mar 2.8 18:33:11 10° W 18:35:59 40° W 18:35:59 40° W visible
31 Mar 1.4 16:39:05 10° WSW 16:42:53 68° SSE 16:47:30 10° E visible
31 Mar 2.5 18:27:06 10° W 18:30:07 46° W 18:30:07 46° W visible
01 Apr 1.3 16:32:57 10° WSW 16:36:41 77° S 16:41:09 10° E visible
01 Apr 2.2 18:21:00 10° W 18:24:12 53° W 18:24:12 53° W visible
02 Apr 1.9 18:14:54 10° W 18:18:15 60° W 18:18:15 60° W visible
03 Apr 1.7 18:08:47 10° W 18:12:18 67° WSW 18:12:18 67° WSW visible
04 Apr 1.5 18:02:39 10° W 18:06:19 68° SW 18:06:19 68° SW visible
05 Apr 1.5 17:56:31 10° W 18:00:19 60° SSW 18:00:21 60° S visible
06 Apr 1.6 17:50:23 10° W 17:54:02 49° SSW 17:54:23 48° S visible
